This demonstration page uses our WeatherBlox Daily Observations layout. Learn more.

Left ArrowRight Arrow

Hourly Observations for September 10, 2021

Temp ( °F °C ) Dew Point ( °F °C ) Humidity (%) Winds ( mph kmh ) Pressure ( in mb ) Visibility ( mi km ) Precip ( " mm )
12:54 am 00:54 Clear 66 18.9 57 13.9 73 73 N N/A 29.95 1014 10 16 N/A
1:54 am 01:54 Clear 65 18.3 57 13.9 76 76 N N/A 29.94 1014 10 16 N/A
2:54 am 02:54 Clear 64 17.8 57 13.9 78 78 N N/A 29.92 1013 10 16 N/A
3:54 am 03:54 Clear 64 17.8 58 14.4 81 81 E 3 6 29.92 1013 10 16 N/A
4:54 am 04:54 Clear 64 17.8 58 14.4 81 81 E 5 7 29.91 1013 10 16 N/A
5:54 am 05:54 Clear 63 17.2 58 14.4 84 84 SE 3 6 29.91 1013 10 16 N/A
6:54 am 06:54 Clear 63 17.2 58 14.4 84 84 N N/A 29.90 1013 10 16 N/A
7:54 am 07:54 Sunny 63 17.2 59 15 87 87 N N/A 29.91 1013 10 16 N/A
8:54 am 08:54 Sunny 67 19.4 61 16.1 81 81 VRB 3 6 29.92 1013 10 16 N/A
9:54 am 09:54 Sunny 70 21.1 61 16.1 73 73 N N/A 29.91 1013 10 16 N/A
10:54 am 10:54 Sunny 74 23.3 62 16.7 67 67 N N/A 29.92 1013 10 16 0.00 0.00
11:54 am 11:54 Sunny 80 26.7 64 17.8 58 58 VRB 3 6 29.90 1013 10 16 N/A
12:54 pm 12:54 Sunny 82 27.8 64 17.8 55 55 N N/A 29.89 1012 10 16 N/A
1:54 pm 13:54 Sunny 85 29.4 65 18.3 51 51 SE 3 6 29.88 1012 10 16 N/A
2:54 pm 14:54 Sunny 86 30 66 18.9 51 51 N N/A 29.87 1012 10 16 N/A
3:54 pm 15:54 Sunny 88 31.1 67 19.4 50 50 VRB 5 7 29.85 1011 10 16 N/A
4:54 pm 16:54 Sunny 88 31.1 68 20 52 52 N N/A 29.85 1011 10 16 N/A
5:54 pm 17:54 Sunny 88 31.1 68 20 52 52 S 3 6 29.83 1010 10 16 N/A
6:54 pm 18:54 Sunny 84 28.9 71 21.7 65 65 S 5 7 29.84 1011 10 16 N/A
7:54 pm 19:54 Clear 78 25.6 69 20.6 74 74 N 5 7 29.85 1011 10 16 N/A
8:54 pm 20:54 Clear 75 23.9 69 20.6 82 82 N N/A 29.87 1011 9 14 N/A
9:54 pm 21:54 Clear 73 22.8 69 20.6 87 87 N N/A 29.88 1012 9 14 N/A
10:54 pm 22:54 Clear 72 22.2 68 20 87 87 N N/A 29.87 1012 8 13 N/A
11:54 pm 23:54 Clear 67 19.4 64 17.8 91 91 N N/A 29.86 1011 9 14 N/A

Powered by AerisWeather